| time (UTC) | temp C | wind direction | speed KPH | gust KPH | rain 1hr cm | rain 24hr cm | rain mn cm | humidity % | barometer mb |
| 20260906124503 | 24 | 222 | 8.0 | 16.1 | 0.00 | 0.33 | 0.33 | 89 | 989.3 |
| 20260906124002 | 23 | 296 | 8.0 | 16.1 | 0.00 | 0.33 | 0.33 | 89 | 989.3 |
| 20260906123502 | 23 | 329 | 6.4 | 11.3 | 0.00 | 0.33 | 0.33 | 90 | 989.2 |
| 20260906123002 | 23 | 1 | 8.0 | 14.5 | 0.00 | 0.33 | 0.33 | 92 | 989.3 |
| 20260906122502 | 23 | 305 | 9.7 | 19.3 | 0.00 | 0.33 | 0.33 | 93 | 989.3 |
| 20260906122002 | 23 | 316 | 9.7 | 14.5 | 0.00 | 0.33 | 0.33 | 93 | 989.2 |
| 20260906121503 | 23 | 318 | 6.4 | 14.5 | 0.00 | 0.33 | 0.33 | 92 | 989.1 |
| 20260906121002 | 23 | 317 | 8.0 | 11.3 | 0.00 | 0.33 | 0.33 | 92 | 989.1 |
| 20260906120502 | 23 | 318 | 8.0 | 14.5 | 0.00 | 0.33 | 0.33 | 93 | 989.0 |
| 20260906120002 | 22 | 316 | 11.3 | 12.9 | 0.00 | 0.33 | 0.33 | 93 | 988.9 |
| 20260906115502 | 22 | 318 | 8.0 | 14.5 | 0.00 | 0.33 | 0.33 | 94 | 988.8 |
| 20260906115002 | 22 | 317 | 8.0 | 14.5 | 0.00 | 0.33 | 0.33 | 94 | 988.7 |
| 20260906114502 | 22 | 317 | 6.4 | 14.5 | 0.00 | 0.33 | 0.33 | 94 | 988.6 |
| 20260906114002 | 22 | 318 | 8.0 | 14.5 | 0.00 | 0.33 | 0.33 | 94 | 988.6 |
| 20260906113503 | 22 | 319 | 6.4 | 11.3 | 0.00 | 0.33 | 0.33 | 94 | 988.6 |
| 20260906113002 | 22 | 316 | 8.0 | 11.3 | 0.00 | 0.33 | 0.33 | 94 | 988.6 |
| 20260906112502 | 22 | 319 | 8.0 | 11.3 | 0.00 | 0.33 | 0.33 | 94 | 988.6 |
| 20260906112002 | 22 | 318 | 11.3 | 16.1 | 0.00 | 0.33 | 0.33 | 94 | 988.6 |
| 20260906111503 | 22 | 318 | 9.7 | 12.9 | 0.00 | 0.33 | 0.33 | 95 | 988.5 |
| 20260906111002 | 22 | 317 | 9.7 | 12.9 | 0.00 | 0.33 | 0.33 | 95 | 988.4 |
| 20260906110502 | 22 | 317 | 8.0 | 14.5 | 0.00 | 0.33 | 0.33 | 95 | 988.4 |
| 20260906110002 | 22 | 317 | 8.0 | 9.7 | 0.00 | 0.33 | 0.33 | 95 | 988.4 |
| 20260906105502 | 22 | 319 | 8.0 | 14.5 | 0.00 | 0.33 | 0.33 | 94 | 988.4 |
| 20260906105002 | 22 | 319 | 11.3 | 16.1 | 0.00 | 0.33 | 0.33 | 94 | 988.4 |
| 20260906104502 | 22 | 319 | 9.7 | 14.5 | 0.00 | 0.33 | 0.33 | 94 | 988.3 |
| 20260906104003 | 22 | 319 | 11.3 | 16.1 | 0.00 | 0.33 | 0.33 | 94 | 988.4 |
| 20260906103502 | 22 | 319 | 11.3 | 14.5 | 0.00 | 0.33 | 0.33 | 93 | 988.4 |
| 20260906103003 | 22 | 319 | 9.7 | 14.5 | 0.00 | 0.33 | 0.33 | 93 | 988.4 |
| 20260906102502 | 22 | 317 | 8.0 | 14.5 | 0.00 | 0.33 | 0.33 | 93 | 988.3 |
| 20260906102002 | 22 | 318 | 8.0 | 16.1 | 0.00 | 0.33 | 0.33 | 93 | 988.4 |
| 20260906101502 | 22 | 318 | 11.3 | 16.1 | 0.00 | 0.33 | 0.33 | 92 | 988.4 |
| 20260906101002 | 22 | 322 | 9.7 | 14.5 | 0.00 | 0.33 | 0.33 | 92 | 988.4 |
| 20260906100502 | 22 | 318 | 11.3 | 14.5 | 0.00 | 0.33 | 0.33 | 92 | 988.4 |
| 20260906100003 | 22 | 318 | 8.0 | 11.3 | 0.00 | 0.33 | 0.33 | 93 | 988.4 |
| 20260906095502 | 22 | 317 | 8.0 | 11.3 | 0.00 | 0.33 | 0.33 | 93 | 988.4 |
| 20260906095002 | 22 | 317 | 6.4 | 12.9 | 0.00 | 0.33 | 0.33 | 93 | 988.3 |
| 20260906094502 | 22 | 317 | 6.4 | 14.5 | 0.00 | 0.33 | 0.33 | 93 | 988.3 |
| 20260906094002 | 22 | 321 | 6.4 | 9.7 | 0.00 | 0.33 | 0.33 | 94 | 988.3 |
| 20260906093503 | 22 | 318 | 6.4 | 8.0 | 0.00 | 0.33 | 0.33 | 94 | 988.3 |
| 20260906093002 | 22 | 316 | 4.8 | 8.0 | 0.00 | 0.33 | 0.33 | 95 | 988.3 |
| 20260906092502 | 22 | 313 | 6.4 | 8.0 | 0.00 | 0.33 | 0.33 | 95 | 988.2 |
| 20260906092002 | 22 | 315 | 4.8 | 6.4 | 0.00 | 0.33 | 0.33 | 94 | 988.2 |
| 20260906091502 | 22 | 315 | 3.2 | 6.4 | 0.00 | 0.33 | 0.33 | 94 | 988.1 |
| 20260906091002 | 22 | 318 | 4.8 | 8.0 | 0.00 | 0.33 | 0.33 | 95 | 988.1 |
| 20260906090503 | 22 | 316 | 4.8 | 9.7 | 0.00 | 0.33 | 0.33 | 96 | 988.1 |
| 20260906090002 | 22 | 317 | 6.4 | 11.3 | 0.00 | 0.33 | 0.33 | 96 | 988.0 |
| 20260906085502 | 22 | 317 | 6.4 | 9.7 | 0.00 | 0.33 | 0.33 | 96 | 988.0 |
| 20260906085002 | 22 | 319 | 6.4 | 9.7 | 0.00 | 0.33 | 0.33 | 95 | 988.0 |
| 20260906084502 | 22 | 319 | 8.0 | 11.3 | 0.00 | 0.33 | 0.33 | 95 | 988.1 |
| 20260906084002 | 22 | 318 | 8.0 | 12.9 | 0.00 | 0.33 | 0.33 | 94 | 988.1 |
| 20260906083502 | 22 | 320 | 6.4 | 11.3 | 0.00 | 0.33 | 0.33 | 94 | 988.1 |
| 20260906083003 | 22 | 317 | 6.4 | 11.3 | 0.00 | 0.33 | 0.33 | 95 | 988.1 |
| 20260906082502 | 22 | 319 | 6.4 | 11.3 | 0.00 | 0.33 | 0.33 | 95 | 988.1 |
| 20260906082002 | 22 | 317 | 6.4 | 11.3 | 0.00 | 0.33 | 0.33 | 95 | 988.0 |
| 20260906081502 | 22 | 319 | 8.0 | 11.3 | 0.00 | 0.33 | 0.33 | 97 | 988.0 |
| 20260906081002 | 23 | 319 | 8.0 | 11.3 | 0.00 | 0.33 | 0.33 | 98 | 988.1 |
| 20260906080502 | 23 | 317 | 6.4 | 9.7 | 0.00 | 0.33 | 0.33 | 98 | 988.0 |
| 20260906080002 | 23 | 317 | 8.0 | 11.3 | 0.00 | 0.33 | 0.33 | 98 | 988.1 |
| 20260906075502 | 23 | 317 | 8.0 | 9.7 | 0.00 | 0.33 | 0.33 | 98 | 988.1 |
| 20260906075002 | 23 | 318 | 8.0 | 9.7 | 0.00 | 0.33 | 0.33 | 98 | 988.1 |
| 20260906074503 | 23 | 318 | 6.4 | 9.7 | 0.00 | 0.33 | 0.33 | 98 | 988.1 |
| 20260906074002 | 23 | 318 | 8.0 | 9.7 | 0.00 | 0.33 | 0.33 | 98 | 988.2 |
| 20260906073502 | 23 | 318 | 6.4 | 12.9 | 0.00 | 0.33 | 0.33 | 98 | 988.3 |
| 20260906073002 | 23 | 317 | 8.0 | 12.9 | 0.00 | 0.33 | 0.33 | 98 | 988.3 |
| 20260906072502 | 23 | 318 | 6.4 | 11.3 | 0.00 | 0.33 | 0.33 | 98 | 988.4 |
| 20260906072002 | 23 | 318 | 6.4 | 12.9 | 0.00 | 0.33 | 0.33 | 98 | 988.5 |
| 20260906071502 | 23 | 316 | 3.2 | 4.8 | 0.00 | 0.33 | 0.33 | 98 | 988.5 |
| 20260906071003 | 23 | 316 | 4.8 | 6.4 | 0.00 | 0.33 | 0.33 | 98 | 988.6 |
| 20260906070502 | 23 | 316 | 4.8 | 6.4 | 0.00 | 0.33 | 0.33 | 98 | 988.7 |
| 20260906070002 | 23 | 316 | 3.2 | 6.4 | 0.00 | 0.33 | 0.33 | 97 | 988.7 |
| 20260906065502 | 23 | 317 | 4.8 | 8.0 | 0.00 | 0.33 | 0.33 | 97 | 988.8 |
| 20260906065002 | 23 | 317 | 6.4 | 8.0 | 0.00 | 0.33 | 0.33 | 97 | 988.8 |
| 20260906064502 | 23 | 318 | 6.4 | 9.7 | 0.00 | 0.33 | 0.33 | 97 | 988.7 |
| 20260906064002 | 23 | 318 | 6.4 | 9.7 | 0.00 | 0.33 | 0.33 | 96 | 988.7 |
| 20260906063503 | 23 | 318 | 6.4 | 11.3 | 0.00 | 0.33 | 0.33 | 96 | 988.5 |
| 20260906063003 | 24 | 318 | 8.0 | 11.3 | 0.00 | 0.33 | 0.33 | 95 | 988.4 |
| 20260906062502 | 24 | 318 | 8.0 | 9.7 | 0.00 | 0.33 | 0.33 | 94 | 988.2 |
| 20260906062002 | 24 | 318 | 8.0 | 14.5 | 0.00 | 0.33 | 0.33 | 94 | 988.2 |
| 20260906061502 | 24 | 317 | 6.4 | 11.3 | 0.03 | 0.33 | 0.33 | 93 | 988.2 |
| 20260906061003 | 24 | 321 | 9.7 | 17.7 | 0.05 | 0.33 | 0.33 | 92 | 988.2 |
| 20260906060502 | 25 | 320 | 12.9 | 27.4 | 0.05 | 0.33 | 0.33 | 91 | 988.2 |
| 20260906060003 | 25 | 301 | 14.5 | 30.6 | 0.03 | 0.30 | 0.30 | 85 | 988.4 |
| 20260906055502 | 24 | 297 | 8.0 | 17.7 | 0.00 | 0.05 | 0.05 | 93 | 988.7 |
| 20260906055003 | 24 | 287 | 8.0 | 27.4 | 0.00 | 0.00 | 0.00 | 94 | 988.4 |
| 20260906054502 | 24 | 306 | 8.0 | 24.1 | 0.00 | 0.00 | 0.00 | 94 | 988.2 |
| 20260906054003 | 24 | 209 | 17.7 | 35.4 | 0.00 | 0.00 | 0.00 | 94 | 988.3 |
| 20260906053502 | 24 | 203 | 24.1 | 37.0 | 0.00 | 0.00 | 0.00 | 94 | 988.2 |
| 20260906053002 | 24 | 207 | 22.5 | 38.6 | 0.00 | 0.00 | 0.00 | 94 | 988.3 |
| 20260906052502 | 24 | 195 | 25.7 | 40.2 | 0.00 | 0.00 | 0.00 | 95 | 988.3 |
| 20260906052002 | 24 | 186 | 25.7 | 37.0 | 0.00 | 0.00 | 0.00 | 95 | 988.3 |
| 20260906051502 | 24 | 209 | 24.1 | 35.4 | 0.00 | 0.00 | 0.00 | 96 | 988.2 |
| 20260906051002 | 24 | 286 | 8.0 | 27.4 | 0.00 | 0.00 | 0.00 | 96 | 988.2 |
| 20260906050502 | 24 | 306 | 4.8 | 22.5 | 0.00 | 0.00 | 0.00 | 95 | 988.2 |
| 20260906050002 | 23 | 316 | 3.2 | 6.4 | 0.00 | 0.00 | 0.00 | 95 | 988.2 |
| 20260906045502 | 23 | 315 | 4.8 | 14.5 | 0.00 | 0.00 | 0.00 | 95 | 988.2 |
| 20260906045003 | 24 | 268 | 6.4 | 30.6 | 0.00 | 0.00 | 0.00 | 95 | 988.1 |
| 20260906044503 | 24 | 192 | 22.5 | 35.4 | 0.00 | 0.00 | 0.00 | 95 | 988.1 |
| 20260906044002 | 24 | 190 | 22.5 | 37.0 | 0.00 | 0.00 | 0.00 | 95 | 988.1 |
| 20260906043502 | 24 | 188 | 25.7 | 40.2 | 0.00 | 0.00 | 0.00 | 95 | 988.1 |
| 20260906043002 | 24 | 246 | 20.9 | 38.6 | 0.00 | 0.00 | 0.00 | 95 | 988.1 |
| 20260906042502 | 24 | 270 | 22.5 | 38.6 | 0.00 | 0.00 | 0.00 | 95 | 988.1 |
| 20260906042002 | 24 | 284 | 16.1 | 35.4 | 0.00 | 0.00 | 0.00 | 95 | 988.1 |
| 20260906041502 | 24 | 222 | 22.5 | 37.0 | 0.00 | 0.00 | 0.00 | 95 | 988.2 |
| 20260906041003 | 24 | 197 | 16.1 | 33.8 | 0.00 | 0.00 | 0.00 | 94 | 988.3 |
| 20260906040502 | 24 | 214 | 17.7 | 32.2 | 0.00 | 0.00 | 0.00 | 94 | 988.3 |
| 20260906040002 | 24 | 187 | 27.4 | 38.6 | 0.00 | 0.00 | 0.00 | 94 | 988.4 |
| 20260906035502 | 24 | 197 | 22.5 | 41.8 | 0.00 | 0.00 | 0.00 | 94 | 988.3 |
| 20260906035003 | 25 | 198 | 22.5 | 35.4 | 0.00 | 0.00 | 0.00 | 94 | 988.3 |
| 20260906034502 | 25 | 192 | 20.9 | 35.4 | 0.00 | 0.00 | 0.00 | 94 | 988.3 |
| 20260906034002 | 25 | 209 | 19.3 | 33.8 | 0.00 | 0.00 | 0.00 | 94 | 988.2 |
| 20260906033502 | 25 | 214 | 20.9 | 32.2 | 0.00 | 0.00 | 0.00 | 94 | 988.1 |
| 20260906033002 | 25 | 204 | 22.5 | 32.2 | 0.00 | 0.00 | 0.00 | 93 | 988.1 |
| 20260906032502 | 25 | 202 | 20.9 | 32.2 | 0.00 | 0.00 | 0.00 | 93 | 988.1 |
| 20260906032002 | 25 | 261 | 8.0 | 25.7 | 0.00 | 0.00 | 0.00 | 93 | 988.1 |
| 20260906031502 | 25 | 243 | 12.9 | 25.7 | 0.00 | 0.00 | 0.00 | 93 | 988.1 |
| 20260906031002 | 25 | 250 | 12.9 | 29.0 | 0.00 | 0.00 | 0.00 | 92 | 988.0 |
| 20260906030503 | 25 | 236 | 12.9 | 27.4 | 0.00 | 0.00 | 0.00 | 92 | 987.9 |
| 20260906030002 | 25 | 191 | 24.1 | 38.6 | 0.00 | 0.00 | 0.00 | 92 | 987.8 |
| 20260906025502 | 25 | 189 | 22.5 | 33.8 | 0.00 | 0.00 | 0.00 | 92 | 987.7 |
| 20260906025002 | 25 | 198 | 20.9 | 30.6 | 0.00 | 0.00 | 0.00 | 92 | 987.6 |
| 20260906024502 | 25 | 182 | 24.1 | 33.8 | 0.00 | 0.00 | 0.00 | 92 | 987.6 |
| 20260906024003 | 25 | 183 | 25.7 | 35.4 | 0.00 | 0.00 | 0.00 | 92 | 987.5 |
| 20260906023503 | 25 | 178 | 25.7 | 37.0 | 0.00 | 0.00 | 0.00 | 92 | 987.5 |
| 20260906023002 | 25 | 187 | 22.5 | 37.0 | 0.00 | 0.00 | 0.00 | 91 | 987.3 |
| 20260906022503 | 25 | 189 | 22.5 | 32.2 | 0.00 | 0.00 | 0.00 | 91 | 987.2 |
| 20260906022002 | 25 | 196 | 22.5 | 30.6 | 0.00 | 0.00 | 0.00 | 91 | 987.2 |
| 20260906021502 | 25 | 195 | 20.9 | 32.2 | 0.00 | 0.00 | 0.00 | 91 | 987.2 |
| 20260906021002 | 25 | 193 | 22.5 | 32.2 | 0.00 | 0.00 | 0.00 | 91 | 987.3 |
| 20260906020502 | 26 | 192 | 22.5 | 32.2 | 0.00 | 0.00 | 0.00 | 90 | 987.4 |
| 20260906020002 | 26 | 191 | 22.5 | 32.2 | 0.00 | 0.00 | 0.00 | 90 | 987.4 |
| 20260906015503 | 26 | 197 | 20.9 | 33.8 | 0.00 | 0.00 | 0.00 | 90 | 987.4 |
| 20260906015002 | 26 | 210 | 19.3 | 33.8 | 0.00 | 0.00 | 0.00 | 90 | 987.4 |
| 20260906014502 | 26 | 218 | 17.7 | 30.6 | 0.00 | 0.00 | 0.00 | 90 | 987.3 |
| 20260906014002 | 26 | 210 | 17.7 | 29.0 | 0.00 | 0.00 | 0.00 | 89 | 987.3 |
| 20260906013502 | 26 | 204 | 16.1 | 30.6 | 0.00 | 0.00 | 0.00 | 88 | 987.3 |
| 20260906013003 | 26 | 201 | 17.7 | 32.2 | 0.00 | 0.00 | 0.00 | 89 | 987.3 |
| 20260906012502 | 26 | 203 | 19.3 | 32.2 | 0.00 | 0.00 | 0.00 | 88 | 987.2 |
| 20260906012002 | 26 | 201 | 20.9 | 33.8 | 0.00 | 0.00 | 0.00 | 88 | 987.2 |
| 20260906011502 | 26 | 199 | 22.5 | 35.4 | 0.00 | 0.00 | 0.00 | 88 | 987.2 |
| 20260906011002 | 26 | 186 | 24.1 | 35.4 | 0.00 | 0.00 | 0.00 | 88 | 987.2 |
| 20260906010502 | 27 | 192 | 24.1 | 35.4 | 0.00 | 0.00 | 0.00 | 88 | 987.2 |
| 20260906010002 | 27 | 285 | 6.4 | 27.4 | 0.00 | 0.00 | 0.00 | 87 | 987.1 |
| 20260906005502 | 27 | 301 | 4.8 | 11.3 | 0.00 | 0.00 | 0.00 | 87 | 987.0 |
| 20260906005002 | 27 | 269 | 8.0 | 30.6 | 0.00 | 0.00 | 0.00 | 86 | 986.9 |
| 20260906004502 | 27 | 266 | 6.4 | 33.8 | 0.00 | 0.00 | 0.00 | 85 | 986.9 |
| 20260906004002 | 27 | 285 | 8.0 | 24.1 | 0.00 | 0.00 | 0.00 | 85 | 986.9 |
| 20260906003502 | 27 | 272 | 17.7 | 25.7 | 0.00 | 0.00 | 0.00 | 84 | 986.8 |
| 20260906003002 | 28 | 271 | 19.3 | 25.7 | 0.00 | 0.00 | 0.00 | 82 | 986.6 |
| 20260906002503 | 28 | 259 | 16.1 | 27.4 | 0.00 | 0.00 | 0.00 | 82 | 986.4 |
| 20260906002002 | 28 | 209 | 17.7 | 30.6 | 0.00 | 0.00 | 0.00 | 81 | 986.5 |
| 20260906001502 | 28 | 202 | 19.3 | 29.0 | 0.00 | 0.00 | 0.00 | 80 | 986.6 |
| 20260906001003 | 28 | 205 | 19.3 | 27.4 | 0.00 | 0.00 | 0.00 | 79 | 986.6 |
| 20260906000502 | 29 | 207 | 19.3 | 29.0 | 0.00 | 0.00 | 0.00 | 78 | 986.6 |
| 20260906000002 | 29 | 206 | 17.7 | 27.4 | 0.00 | 0.00 | 0.00 | 77 | 986.7 |
| 20260905235503 | 30 | 201 | 19.3 | 29.0 | 0.00 | 0.00 | 0.00 | 76 | 986.8 |
| 20260905235003 | 30 | 203 | 19.3 | 29.0 | 0.00 | 0.00 | 0.00 | 75 | 986.9 |
| 20260905234503 | 30 | 204 | 17.7 | 29.0 | 0.00 | 0.00 | 0.00 | 74 | 987.0 |
| 20260905234002 | 30 | 204 | 20.9 | 27.4 | 0.00 | 0.00 | 0.00 | 73 | 987.0 |
| 20260905233502 | 31 | 199 | 19.3 | 29.0 | 0.00 | 0.00 | 0.00 | 71 | 987.0 |
| 20260905233003 | 31 | 179 | 22.5 | 35.4 | 0.00 | 0.00 | 0.00 | 70 | 986.9 |
| 20260905232502 | 31 | 177 | 22.5 | 32.2 | 0.00 | 0.00 | 0.00 | 69 | 986.8 |
| 20260905232002 | 32 | 176 | 19.3 | 30.6 | 0.00 | 0.00 | 0.00 | 67 | 986.8 |
| 20260905231502 | 32 | 181 | 19.3 | 29.0 | 0.00 | 0.00 | 0.00 | 65 | 986.8 |
| 20260905231002 | 33 | 170 | 19.3 | 27.4 | 0.00 | 0.00 | 0.00 | 61 | 986.8 |
| 20260905230502 | 33 | 176 | 17.7 | 27.4 | 0.00 | 0.00 | 0.00 | 59 | 986.9 |
| 20260905230003 | 33 | 169 | 17.7 | 27.4 | 0.00 | 0.00 | 0.00 | 57 | 986.9 |
| 20260905225502 | 33 | 176 | 16.1 | 27.4 | 0.00 | 0.00 | 0.00 | 58 | 986.9 |
| 20260905225002 | 34 | 184 | 19.3 | 27.4 | 0.00 | 0.00 | 0.00 | 58 | 986.9 |
| 20260905224502 | 35 | 171 | 19.3 | 29.0 | 0.00 | 0.00 | 0.00 | 54 | 986.9 |
| 20260905224002 | 35 | 168 | 16.1 | 24.1 | 0.00 | 0.00 | 0.00 | 53 | 986.9 |
| 20260905223502 | 35 | 167 | 12.9 | 22.5 | 0.00 | 0.00 | 0.00 | 55 | 986.8 |
| 20260905223002 | 35 | 170 | 16.1 | 25.7 | 0.00 | 0.00 | 0.00 | 55 | 986.8 |
| 20260905222502 | 35 | 169 | 14.5 | 25.7 | 0.00 | 0.00 | 0.00 | 53 | 986.9 |
| 20260905222002 | 35 | 171 | 11.3 | 19.3 | 0.00 | 0.00 | 0.00 | 51 | 986.9 |
| 20260905221502 | 35 | 176 | 12.9 | 25.7 | 0.00 | 0.00 | 0.00 | 51 | 986.9 |
| 20260905221003 | 35 | 174 | 11.3 | 20.9 | 0.00 | 0.00 | 0.00 | 50 | 987.0 |
| 20260905220502 | 35 | 172 | 12.9 | 22.5 | 0.00 | 0.00 | 0.00 | 50 | 987.0 |
| 20260905220002 | 35 | 172 | 11.3 | 16.1 | 0.00 | 0.00 | 0.00 | 51 | 987.0 |
| 20260905215503 | 35 | 169 | 14.5 | 22.5 | 0.00 | 0.00 | 0.00 | 51 | 987.0 |
| 20260905215002 | 35 | 170 | 12.9 | 22.5 | 0.00 | 0.00 | 0.00 | 52 | 987.0 |
| 20260905214502 | 35 | 163 | 17.7 | 27.4 | 0.00 | 0.00 | 0.00 | 54 | 987.1 |
| 20260905214002 | 35 | 167 | 14.5 | 22.5 | 0.00 | 0.00 | 0.00 | 52 | 987.1 |
| 20260905213502 | 35 | 164 | 14.5 | 24.1 | 0.00 | 0.00 | 0.00 | 52 | 987.1 |
| 20260905213002 | 36 | 172 | 12.9 | 20.9 | 0.00 | 0.00 | 0.00 | 52 | 987.1 |
| 20260905212503 | 36 | 159 | 11.3 | 16.1 | 0.00 | 0.00 | 0.00 | 50 | 987.1 |
| 20260905212002 | 36 | 175 | 14.5 | 22.5 | 0.00 | 0.00 | 0.00 | 50 | 987.1 |
| 20260905211502 | 36 | 169 | 11.3 | 19.3 | 0.00 | 0.00 | 0.00 | 51 | 987.1 |
| 20260905211002 | 35 | 164 | 11.3 | 20.9 | 0.00 | 0.00 | 0.00 | 51 | 987.2 |
| 20260905210502 | 35 | 172 | 12.9 | 19.3 | 0.00 | 0.00 | 0.00 | 50 | 987.2 |
| 20260905210003 | 35 | 172 | 12.9 | 17.7 | 0.00 | 0.00 | 0.00 | 51 | 987.3 |
| 20260905205503 | 36 | 164 | 11.3 | 17.7 | 0.00 | 0.00 | 0.00 | 49 | 987.3 |
| 20260905205002 | 36 | 181 | 17.7 | 30.6 | 0.00 | 0.00 | 0.00 | 50 | 987.4 |
| 20260905204502 | 35 | 162 | 9.7 | 17.7 | 0.00 | 0.00 | 0.00 | 50 | 987.5 |
| 20260905204002 | 35 | 171 | 12.9 | 19.3 | 0.00 | 0.00 | 0.00 | 52 | 987.6 |
| 20260905203503 | 35 | 168 | 17.7 | 24.1 | 0.00 | 0.00 | 0.00 | 51 | 987.6 |
| 20260905203002 | 35 | 170 | 16.1 | 25.7 | 0.00 | 0.00 | 0.00 | 51 | 987.6 |
| 20260905202502 | 35 | 162 | 17.7 | 27.4 | 0.00 | 0.00 | 0.00 | 52 | 987.7 |
| 20260905202002 | 35 | 180 | 14.5 | 24.1 | 0.00 | 0.00 | 0.00 | 53 | 987.8 |
| 20260905201502 | 35 | 172 | 14.5 | 24.1 | 0.00 | 0.00 | 0.00 | 55 | 987.9 |
| 20260905201002 | 35 | 167 | 14.5 | 24.1 | 0.00 | 0.00 | 0.00 | 51 | 987.9 |
| 20260905200502 | 35 | 264 | 9.7 | 16.1 | 0.00 | 0.00 | 0.00 | 50 | 988.0 |
| 20260905200003 | 35 | 174 | 17.7 | 27.4 | 0.00 | 0.00 | 0.00 | 52 | 988.1 |
| 20260905195501 | 35 | 177 | 14.5 | 25.7 | 0.00 | 0.00 | 0.00 | 53 | 988.2 |
| 20260905195003 | 35 | 178 | 17.7 | 24.1 | 0.00 | 0.00 | 0.00 | 54 | 988.2 |
| 20260905194503 | 35 | 169 | 14.5 | 19.3 | 0.00 | 0.00 | 0.00 | 54 | 988.3 |
| 20260905194002 | 35 | 179 | 16.1 | 22.5 | 0.00 | 0.00 | 0.00 | 54 | 988.3 |
| 20260905193502 | 35 | 184 | 14.5 | 24.1 | 0.00 | 0.00 | 0.00 | 51 | 988.3 |
| 20260905193003 | 35 | 185 | 14.5 | 22.5 | 0.00 | 0.00 | 0.00 | 52 | 988.3 |
| 20260905192502 | 35 | 175 | 14.5 | 20.9 | 0.00 | 0.00 | 0.00 | 53 | 988.4 |
| 20260905192002 | 35 | 168 | 14.5 | 20.9 | 0.00 | 0.00 | 0.00 | 49 | 988.4 |
| 20260905191502 | 36 | 176 | 17.7 | 25.7 | 0.00 | 0.00 | 0.00 | 50 | 988.5 |
| 20260905191002 | 35 | 180 | 11.3 | 20.9 | 0.00 | 0.00 | 0.00 | 50 | 988.6 |
| 20260905190503 | 35 | 159 | 12.9 | 25.7 | 0.00 | 0.00 | 0.00 | 50 | 988.8 |
| 20260905190002 | 35 | 153 | 9.7 | 16.1 | 0.00 | 0.00 | 0.00 | 51 | 988.9 |
| 20260905185502 | 35 | 161 | 9.7 | 14.5 | 0.00 | 0.00 | 0.00 | 52 | 989.0 |
| 20260905185002 | 35 | 162 | 12.9 | 27.4 | 0.00 | 0.00 | 0.00 | 52 | 989.1 |
| 20260905184502 | 35 | 165 | 16.1 | 29.0 | 0.00 | 0.00 | 0.00 | 51 | 989.1 |
| 20260905184002 | 35 | 176 | 12.9 | 22.5 | 0.00 | 0.00 | 0.00 | 52 | 989.2 |
| 20260905183502 | 34 | 178 | 11.3 | 19.3 | 0.00 | 0.00 | 0.00 | 52 | 989.2 |
| 20260905183002 | 34 | 164 | 16.1 | 22.5 | 0.00 | 0.00 | 0.00 | 55 | 989.3 |
| 20260905182502 | 33 | 182 | 11.3 | 19.3 | 0.00 | 0.00 | 0.00 | 57 | 989.3 |
| 20260905182002 | 33 | 177 | 17.7 | 29.0 | 0.00 | 0.00 | 0.00 | 60 | 989.3 |
| 20260905181503 | 33 | 159 | 20.9 | 27.4 | 0.00 | 0.00 | 0.00 | 61 | 989.4 |
| 20260905181002 | 34 | 157 | 22.5 | 30.6 | 0.00 | 0.00 | 0.00 | 59 | 989.5 |
| 20260905180502 | 35 | 175 | 19.3 | 32.2 | 0.00 | 0.00 | 0.00 | 56 | 989.5 |
| 20260905180002 | 35 | 179 | 20.9 | 35.4 | 0.00 | 0.00 | 0.00 | 53 | 989.5 |
| 20260905175502 | 35 | 181 | 12.9 | 25.7 | 0.00 | 0.00 | 0.00 | 53 | 989.5 |
| 20260905175002 | 35 | 179 | 12.9 | 22.5 | 0.00 | 0.00 | 0.00 | 54 | 989.5 |
| 20260905174502 | 34 | 292 | 9.7 | 16.1 | 0.00 | 0.00 | 0.00 | 54 | 989.5 |
| 20260905174003 | 34 | 176 | 19.3 | 29.0 | 0.00 | 0.00 | 0.00 | 56 | 989.6 |
| 20260905173502 | 34 | 185 | 16.1 | 32.2 | 0.00 | 0.00 | 0.00 | 56 | 989.6 |
| 20260905173002 | 34 | 178 | 11.3 | 20.9 | 0.00 | 0.00 | 0.00 | 56 | 989.7 |
| 20260905172502 | 34 | 170 | 12.9 | 19.3 | 0.00 | 0.00 | 0.00 | 57 | 989.7 |
| 20260905172002 | 34 | 142 | 9.7 | 17.7 | 0.00 | 0.00 | 0.00 | 55 | 989.7 |
| 20260905171502 | 34 | 201 | 11.3 | 17.7 | 0.00 | 0.00 | 0.00 | 56 | 989.8 |
| 20260905171002 | 33 | 179 | 16.1 | 29.0 | 0.00 | 0.00 | 0.00 | 56 | 989.8 |
| 20260905170502 | 33 | 347 | 16.1 | 27.4 | 0.00 | 0.00 | 0.00 | 55 | 989.8 |
| 20260905170003 | 33 | 185 | 12.9 | 25.7 | 0.00 | 0.00 | 0.00 | 57 | 989.9 |
| 20260905165502 | 33 | 347 | 11.3 | 24.1 | 0.00 | 0.00 | 0.00 | 58 | 990.0 |
| 20260905165002 | 33 | 127 | 9.7 | 19.3 | 0.00 | 0.00 | 0.00 | 56 | 990.1 |
| 20260905164502 | 33 | 236 | 11.3 | 22.5 | 0.00 | 0.00 | 0.00 | 57 | 990.2 |
| 20260905164002 | 33 | 327 | 11.3 | 25.7 | 0.00 | 0.00 | 0.00 | 57 | 990.2 |
| 20260905163502 | 33 | 300 | 9.7 | 19.3 | 0.00 | 0.00 | 0.00 | 58 | 990.2 |
| 20260905163002 | 33 | 232 | 9.7 | 20.9 | 0.00 | 0.00 | 0.00 | 58 | 990.2 |
| 20260905162502 | 33 | 321 | 11.3 | 20.9 | 0.00 | 0.00 | 0.00 | 58 | 990.2 |
| 20260905162003 | 32 | 317 | 8.0 | 16.1 | 0.00 | 0.00 | 0.00 | 62 | 990.2 |
| 20260905161502 | 32 | 319 | 8.0 | 11.3 | 0.00 | 0.00 | 0.00 | 61 | 990.3 |
| 20260905161002 | 32 | 318 | 8.0 | 12.9 | 0.00 | 0.00 | 0.00 | 62 | 990.3 |
| 20260905160502 | 32 | 319 | 8.0 | 11.3 | 0.00 | 0.00 | 0.00 | 64 | 990.3 |
| 20260905160003 | 31 | 319 | 8.0 | 11.3 | 0.00 | 0.00 | 0.00 | 65 | 990.4 |
| 20260905155502 | 31 | 286 | 14.5 | 35.4 | 0.00 | 0.00 | 0.00 | 69 | 990.4 |
| 20260905155002 | 31 | 239 | 22.5 | 32.2 | 0.00 | 0.00 | 0.00 | 68 | 990.5 |
| 20260905154502 | 31 | 242 | 20.9 | 35.4 | 0.00 | 0.00 | 0.00 | 66 | 990.5 |
| 20260905154002 | 31 | 238 | 22.5 | 33.8 | 0.00 | 0.00 | 0.00 | 70 | 990.6 |
| 20260905153502 | 30 | 224 | 22.5 | 37.0 | 0.00 | 0.00 | 0.00 | 71 | 990.6 |
| 20260905153002 | 30 | 213 | 24.1 | 38.6 | 0.00 | 0.00 | 0.00 | 71 | 990.6 |
| 20260905152502 | 30 | 215 | 19.3 | 33.8 | 0.00 | 0.00 | 0.00 | 72 | 990.6 |
| 20260905152003 | 29 | 213 | 17.7 | 25.7 | 0.00 | 0.00 | 0.00 | 74 | 990.6 |
| 20260905151502 | 29 | 267 | 14.5 | 27.4 | 0.00 | 0.00 | 0.00 | 77 | 990.4 |
| 20260905151002 | 29 | 275 | 8.0 | 20.9 | 0.00 | 0.00 | 0.00 | 79 | 990.3 |
| 20260905150502 | 28 | 312 | 4.8 | 9.7 | 0.00 | 0.00 | 0.00 | 81 | 990.4 |
| 20260905150002 | 28 | 291 | 6.4 | 16.1 | 0.00 | 0.00 | 0.00 | 81 | 990.4 |
| 20260905145503 | 28 | 316 | 3.2 | 6.4 | 0.00 | 0.00 | 0.00 | 80 | 990.4 |
| 20260905145003 | 27 | 310 | 6.4 | 11.3 | 0.00 | 0.00 | 0.00 | 81 | 990.4 |
| 20260905144502 | 27 | 293 | 4.8 | 12.9 | 0.00 | 0.00 | 0.00 | 84 | 990.7 |
| 20260905144002 | 27 | 278 | 8.0 | 19.3 | 0.00 | 0.00 | 0.00 | 85 | 990.9 |
| 20260905143502 | 27 | 286 | 8.0 | 11.3 | 0.00 | 0.00 | 0.00 | 84 | 991.0 |
| 20260905143003 | 27 | 295 | 4.8 | 14.5 | 0.00 | 0.00 | 0.00 | 83 | 991.0 |
| 20260905142502 | 27 | 304 | 6.4 | 19.3 | 0.00 | 0.00 | 0.00 | 86 | 990.9 |
| 20260905142002 | 27 | 290 | 9.7 | 22.5 | 0.00 | 0.00 | 0.00 | 87 | 991.0 |
| 20260905141502 | 26 | 317 | 4.8 | 11.3 | 0.00 | 0.00 | 0.00 | 89 | 991.0 |
| 20260905141002 | 26 | 299 | 8.0 | 38.6 | 0.00 | 0.00 | 0.00 | 90 | 990.9 |
| 20260905140502 | 26 | 254 | 11.3 | 25.7 | 0.00 | 0.00 | 0.00 | 90 | 990.9 |
| 20260905140003 | 25 | 311 | 6.4 | 12.9 | 0.00 | 0.00 | 0.00 | 90 | 990.9 |
| 20260905135502 | 25 | 311 | 6.4 | 11.3 | 0.00 | 0.00 | 0.00 | 91 | 990.9 |
| 20260905135002 | 25 | 307 | 6.4 | 11.3 | 0.00 | 0.00 | 0.00 | 93 | 990.9 |
| 20260905134502 | 25 | 280 | 8.0 | 17.7 | 0.00 | 0.00 | 0.00 | 94 | 991.0 |
| 20260905134002 | 24 | 246 | 8.0 | 22.5 | 0.00 | 0.00 | 0.00 | 95 | 991.0 |
| 20260905133502 | 24 | 252 | 9.7 | 24.1 | 0.00 | 0.00 | 0.00 | 95 | 991.0 |
| 20260905133003 | 24 | 208 | 14.5 | 29.0 | 0.00 | 0.00 | 0.00 | 96 | 991.0 |
| 20260905132502 | 24 | 195 | 14.5 | 29.0 | 0.00 | 0.00 | 0.00 | 97 | 991.0 |
| 20260905132002 | 23 | 198 | 17.7 | 27.4 | 0.00 | 0.00 | 0.00 | 98 | 991.0 |
| 20260905131502 | 23 | 194 | 17.7 | 29.0 | 0.00 | 0.00 | 0.00 | 98 | 991.0 |
| 20260905131002 | 23 | 202 | 16.1 | 27.4 | 0.00 | 0.00 | 0.00 | 98 | 990.9 |
| 20260905130502 | 23 | 196 | 16.1 | 27.4 | 0.00 | 0.00 | 0.00 | 99 | 990.9 |
| 20260905130002 | 23 | 194 | 17.7 | 27.4 | 0.00 | 0.00 | 0.00 | 99 | 990.9 |
| 20260905125502 | 23 | 197 | 17.7 | 27.4 | 0.00 | 0.00 | 0.00 | 99 | 991.0 |
| 20260905125003 | 23 | 203 | 19.3 | 25.7 | 0.00 | 0.00 | 0.00 | 99 | 991.0 |